GW3281 Weather Reports


Display with metric or nautical units.
time (UTC)temp
F
wind
direction
speed
MPH
gust
MPH
rain 1hr
in
rain 24hr
in
rain mn
in
humidity
%
barometer
mb
20260504001058 66 214 3.0 6.0 0.00 0.10 0.10 50 1006.1
20260504000018 66 228 3.0 7.0 0.00 0.10 0.10 48 1006.2
20260503235018 67 235 3.0 8.0 0.00 0.10 0.10 47 1006.1
20260503234018 67 220 4.0 11.0 0.00 0.10 0.10 46 1006.0
20260503233019 67 232 6.0 13.0 0.00 0.10 0.10 46 1006.0
20260503232038 68 246 5.0 10.0 0.00 0.10 0.10 46 1006.0
20260503231019 68 234 6.0 14.0 0.00 0.10 0.10 45 1006.1
20260503230019 67 227 4.0 11.0 0.00 0.10 0.10 45 1006.2
20260503225016 66 213 5.0 11.0 0.00 0.10 0.10 47 1006.3
20260503224019 65 219 4.0 9.0 0.00 0.10 0.10 48 1006.4
20260503223039 64 201 2.0 8.0 0.00 0.10 0.10 50 1006.5
20260503222019 65 226 4.0 8.0 0.00 0.10 0.10 48 1006.6
20260503221020 65 213 4.0 8.0 0.00 0.10 0.10 48 1006.7
20260503220017 65 195 3.0 8.0 0.00 0.10 0.10 48 1006.7
20260503215017 65 229 5.0 13.0 0.00 0.10 0.10 47 1006.7
20260503214020 65 225 5.0 12.0 0.00 0.10 0.10 47 1006.9
20260503213021 65 216 4.0 10.0 0.00 0.10 0.10 47 1007.1
20260503212018 66 231 5.0 10.0 0.00 0.10 0.10 47 1007.3
20260503211018 65 217 6.0 12.0 0.00 0.10 0.10 47 1007.5
20260503210018 64 214 5.0 12.0 0.00 0.10 0.10 47 1007.6
20260503205018 63 219 5.0 12.0 0.00 0.10 0.10 46 1007.8
20260503204038 63 220 5.0 11.0 0.00 0.10 0.10 46 1008.0
20260503203018 62 224 5.0 14.0 0.00 0.10 0.10 48 1008.0
20260503202019 62 212 5.0 10.0 0.00 0.10 0.10 46 1008.3
20260503201019 63 225 6.0 12.0 0.00 0.10 0.10 47 1008.2
20260503200019 63 211 5.0 12.0 0.00 0.10 0.10 46 1008.4
20260503195019 64 228 5.0 10.0 0.00 0.10 0.10 47 1008.4
20260503194019 64 227 6.0 15.0 0.00 0.10 0.10 47 1008.5
20260503193039 63 215 4.0 12.0 0.00 0.10 0.10 50 1008.8
20260503192020 62 222 5.0 10.0 0.00 0.10 0.10 52 1008.9
20260503191017 62 194 4.0 10.0 0.00 0.10 0.10 52 1009.1
20260503190017 61 204 5.0 12.0 0.00 0.10 0.10 56 1009.2
20260503185017 60 198 5.0 15.0 0.00 0.10 0.10 57 1009.4
20260503184020 59 175 4.0 14.0 0.00 0.10 0.10 62 1009.7
20260503183020 57 123 3.0 8.0 0.00 0.10 0.10 67 1009.9
20260503182018 55 138 3.0 7.0 0.00 0.10 0.10 72 1010.1
20260503181018 52 100 3.0 7.0 0.00 0.10 0.10 77 1010.6
20260503180018 51 80 3.0 6.0 0.01 0.10 0.10 78 1011.0
20260503175018 50 75 2.0 5.0 0.01 0.10 0.10 79 1011.5
20260503174018 50 76 2.0 4.0 0.01 0.10 0.10 78 1011.9
20260503173019 50 97 3.0 6.0 0.02 0.10 0.10 82 1012.6
20260503172019 50 93 2.0 4.0 0.02 0.10 0.10 83 1012.7
20260503171020 50 175 3.0 9.0 0.02 0.10 0.10 81 1012.9
20260503131017 49 222 3.0 7.0 0.00 0.00 0.00 66 1014.1
20260503081018 40 103 1.0 2.0 0.00 0.00 0.00 76 1014.4
20260503072019 41 107 1.0 2.0 0.00 0.00 0.00 73 1014.3
20260503071019 41 120 1.0 3.0 0.00 0.00 0.00 71 1014.4
20260503055021 43 111 2.0 4.0 0.00 0.00 0.00 68 1015.1
20260503054017 43 106 1.0 3.0 0.00 0.00 0.00 68 1015.1
20260503053018 42 138 1.0 3.0 0.00 0.00 0.00 69 1015.2
20260503052018 42 95 1.0 2.0 0.00 0.00 0.00 71 1015.3
20260503051018 42 103 1.0 2.0 0.00 0.00 0.00 71 1015.3
20260503050018 42 101 1.0 2.0 0.00 0.00 0.00 71 1015.4
20260503045019 42 104 1.0 3.0 0.00 0.00 0.00 70 1015.4
20260503044019 42 89 1.0 2.0 0.00 0.00 0.00 70 1015.4
20260503043019 42 104 1.0 2.0 0.00 0.00 0.00 70 1015.4
20260503042019 42 105 2.0 2.0 0.00 0.00 0.00 71 1015.5
20260503041016 42 104 1.0 2.0 0.00 0.00 0.00 72 1015.5
20260503040020 43 102 2.0 2.0 0.00 0.00 0.00 71 1015.5
20260503035020 43 107 1.0 2.0 0.00 0.00 0.00 70 1015.6
20260503034040 44 107 1.0 2.0 0.00 0.00 0.00 69 1015.6
20260503033017 44 112 1.0 2.0 0.00 0.00 0.00 67 1015.5
20260503032017 44 104 2.0 2.0 0.00 0.00 0.00 66 1015.6
20260503031017 45 106 2.0 2.0 0.00 0.00 0.00 65 1015.6
20260503030020 45 104 2.0 3.0 0.00 0.00 0.00 64 1015.7
20260503025018 45 103 2.0 3.0 0.00 0.00 0.00 64 1015.7
20260503024018 45 103 2.0 2.0 0.00 0.00 0.00 63 1015.7
20260503023038 45 106 1.0 2.0 0.00 0.00 0.00 66 1015.6
20260503022018 46 105 2.0 2.0 0.00 0.00 0.00 63 1015.4
20260503021018 46 116 2.0 3.0 0.00 0.00 0.00 61 1015.4
20260503020018 46 124 2.0 3.0 0.00 0.00 0.00 59 1015.4
20260503015019 46 124 2.0 3.0 0.00 0.00 0.00 59 1015.3
20260503014019 47 127 1.0 2.0 0.00 0.00 0.00 58 1015.2
20260503013019 47 130 1.0 2.0 0.00 0.00 0.00 58 1015.2
20260503012039 48 128 1.0 2.0 0.00 0.00 0.00 55 1015.1
20260503011019 49 142 1.0 2.0 0.00 0.00 0.00 53 1015.0
20260503010019 50 148 1.0 3.0 0.00 0.00 0.00 50 1015.1
20260503005039 51 162 1.0 2.0 0.00 0.00 0.00 48 1015.1
20260503004040 52 101 1.0 2.0 0.00 0.00 0.00 45 1015.1
20260503003037 53 54 1.0 2.0 0.00 0.00 0.00 43 1015.1
20260503002017 54 79 1.0 2.0 0.00 0.00 0.00 42 1015.1